Flag for Germany Weather past 2 weeks in Willich, North Rhine-Westphalia, Germany

Now
46 °F

Clear.


Feels Like: 41 °F
Forecast: 42 / 49 °F
Wind: 12 mph from South

Location: Monchengladbach Airport

Current Time: Feb 28, 2015 at 3:06:56 PM

Latest Report: Feb 28, 2015 at 2:20 PM


Visibility: 10 mi

Pressure: 30.04 "Hg

Humidity: 57%

Dew point: 32 °F

Location of WillichLocation

Historic Weather in Willich — Graph

°F

Willich temperature yesterday

Maximum temperature yesterday: 46 °F (at 2:50 PM)
Minimum temperature yesterday: 39 °F (at 7:20 AM)
Average temperature yesterday: 43 °F

Past Weeks' High & Low Weather Summary

 TemperatureHumidityPressure
High52 °F (Feb 14, 2:50 PM)100% (Feb 17, 7:50 AM)30.77 "Hg (Feb 17, 7:50 AM)
Low30 °F (Feb 15, 7:50 AM)53% (Feb 27, 3:50 PM)29.45 "Hg (Feb 21, 8:20 AM)
Average42 °F81%30.01 "Hg
* Reported Feb 13 1:20 PM — Feb 28 1:50 PM, Willich, Weather by CustomWeather, © 2015

Note: Actual official high and low records may vary slightly from our data, if they occured in-between our weather recording intervals... More about our weather records

Advertising

Willich weather history for previous 24 hours

 ConditionsComfort  
Time TempWeatherWind HumidityBarometerVisibility
1:50 PM
Sat, Feb 28
46 °FClear.10 mph57%30.04 "Hg10 mi
1:20 PM45 °FClear.12 mph61%30.07 "Hg10 mi
12:50 PM46 °FClear.12 mph57%30.07 "Hg10 mi
12:20 PM45 °FClear.12 mph61%30.09 "Hg10 mi
11:50 AM45 °FPassing clouds.13 mph61%30.07 "HgN/A
11:20 AM41 °FClear.9 mph70%30.09 "Hg10 mi
10:50 AM39 °FPassing clouds.8 mph75%30.09 "HgN/A
10:20 AM39 °FClear.8 mph75%30.12 "Hg10 mi
9:50 AM37 °FClear.6 mph81%30.12 "Hg10 mi
9:20 AM36 °FPassing clouds.6 mph87%30.12 "HgN/A
8:50 AM34 °FPassing clouds.5 mph93%30.12 "HgN/A
8:20 AM32 °FPassing clouds.5 mph100%30.12 "HgN/A
7:50 AM32 °FSunny.3 mph100%30.12 "Hg10 mi
7:20 AM30 °FSunny.2 mph100%30.12 "Hg10 mi
8:20 PM
Fri, Feb 27
41 °FPassing clouds.6 mph70%30.12 "HgN/A
7:50 PM41 °FPassing clouds.7 mph70%30.12 "HgN/A
7:20 PM41 °FPassing clouds.5 mph70%30.09 "HgN/A
6:50 PM43 °FPassing clouds.6 mph66%30.09 "HgN/A
6:20 PM43 °FClear.6 mph66%30.09 "Hg10 mi
5:50 PM43 °FClear.6 mph66%30.07 "Hg10 mi
5:20 PM45 °FClear.8 mph57%30.07 "Hg10 mi
4:50 PM45 °FClear.13 mph53%30.07 "Hg10 mi
4:20 PM45 °FPassing clouds.14 mph57%30.04 "HgN/A
3:50 PM46 °FPassing clouds.16 mph53%30.04 "HgN/A
3:20 PM46 °FPassing clouds.16 mph57%30.04 "HgN/A
Weather by CustomWeather, © 2015

See weather overviewHow to use our weather pages